| time (UTC) | temp F | wind direction | speed knots | gust knots | rain 1hr in | rain 24hr in | rain mn in | humidity % | barometer mb |
| 20260503022003 | 50 | 5 | 0.9 | 2.6 | 0.00 | 0.00 | 0.00 | 67 | 1018.4 |
| 20260503021003 | 50 | 5 | 0.9 | 2.6 | 0.00 | 0.00 | 0.00 | 62 | 1018.4 |
| 20260503020003 | 50 | 5 | 0.9 | 2.6 | 0.00 | 0.00 | 0.00 | 60 | 1018.1 |
| 20260503015003 | 50 | 10 | 0.9 | 2.6 | 0.00 | 0.00 | 0.00 | 62 | 1018.2 |
| 20260503014003 | 50 | 10 | 0.9 | 2.6 | 0.00 | 0.00 | 0.00 | 64 | 1018.0 |
| 20260503013003 | 51 | 10 | 0.9 | 2.6 | 0.00 | 0.00 | 0.00 | 62 | 1017.8 |
| 20260503002003 | 56 | 11 | 2.6 | 7.0 | 0.00 | 0.00 | 0.00 | 46 | 1016.9 |
| 20260502231003 | 60 | 14 | 7.8 | 14.8 | 0.00 | 0.00 | 0.00 | 39 | 1015.9 |
| 20260502230003 | 60 | 333 | 7.8 | 15.6 | 0.00 | 0.00 | 0.00 | 38 | 1015.9 |
| 20260502225003 | 60 | 341 | 10.4 | 19.1 | 0.00 | 0.00 | 0.00 | 38 | 1016.0 |
| 20260502224003 | 60 | 340 | 8.7 | 17.4 | 0.00 | 0.00 | 0.00 | 38 | 1016.0 |
| 20260502223004 | 61 | 312 | 4.3 | 12.2 | 0.00 | 0.00 | 0.00 | 41 | 1015.8 |
| 20260502222004 | 61 | 348 | 5.2 | 13.9 | 0.00 | 0.00 | 0.00 | 42 | 1015.8 |
| 20260502221003 | 62 | 1 | 7.0 | 15.6 | 0.00 | 0.00 | 0.00 | 40 | 1015.7 |
| 20260502220003 | 62 | 303 | 7.0 | 13.0 | 0.00 | 0.00 | 0.00 | 37 | 1015.4 |
| 20260502215003 | 62 | 339 | 7.0 | 14.8 | 0.00 | 0.00 | 0.00 | 39 | 1015.3 |
| 20260502214003 | 62 | 321 | 6.1 | 14.8 | 0.00 | 0.00 | 0.00 | 39 | 1015.1 |
| 20260502213003 | 62 | 15 | 6.1 | 13.9 | 0.00 | 0.00 | 0.00 | 38 | 1014.9 |
| 20260502212004 | 63 | 342 | 6.1 | 15.6 | 0.00 | 0.00 | 0.00 | 41 | 1014.8 |
| 20260502191003 | 65 | 303 | 6.1 | 13.0 | 0.00 | 0.00 | 0.00 | 48 | 1014.4 |
| 20260502190004 | 65 | 340 | 4.3 | 12.2 | 0.00 | 0.00 | 0.00 | 50 | 1014.2 |
| 20260502185003 | 65 | 222 | 4.3 | 12.2 | 0.00 | 0.00 | 0.00 | 51 | 1014.2 |
| 20260502184003 | 64 | 342 | 2.6 | 8.7 | 0.00 | 0.00 | 0.00 | 55 | 1014.2 |
| 20260502183004 | 63 | 305 | 5.2 | 8.7 | 0.00 | 0.00 | 0.00 | 56 | 1014.4 |
| 20260502182004 | 63 | 327 | 0.9 | 7.8 | 0.00 | 0.00 | 0.00 | 55 | 1014.4 |
| 20260502181003 | 63 | 337 | 1.7 | 7.0 | 0.00 | 0.00 | 0.00 | 58 | 1014.4 |
| 20260502151004 | 61 | 350 | 0.9 | 2.6 | 0.00 | 0.00 | 0.00 | 64 | 1015.2 |
| 20260502115003 | 52 | 228 | 0.0 | 0.0 | 0.00 | 0.00 | 0.00 | 75 | 1014.3 |
| 20260502114003 | 52 | 262 | 0.0 | 1.7 | 0.00 | 0.00 | 0.00 | 75 | 1014.0 |
| 20260502113004 | 52 | 262 | 0.0 | 0.0 | 0.00 | 0.00 | 0.00 | 78 | 1014.2 |
| 20260502112004 | 52 | 262 | 0.0 | 0.0 | 0.00 | 0.00 | 0.00 | 77 | 1014.4 |
| 20260502111003 | 52 | 262 | 0.0 | 0.0 | 0.00 | 0.00 | 0.00 | 77 | 1014.3 |
| 20260502110004 | 53 | 262 | 0.9 | 2.6 | 0.00 | 0.00 | 0.00 | 77 | 1014.1 |
| 20260502071003 | 55 | 329 | 0.0 | 2.6 | 0.00 | 0.00 | 0.00 | 71 | 1014.3 |
| 20260502070004 | 55 | 329 | 0.0 | 2.6 | 0.00 | 0.00 | 0.00 | 72 | 1014.5 |
| 20260502065004 | 56 | 329 | 1.7 | 4.3 | 0.00 | 0.00 | 0.00 | 71 | 1014.6 |
| 20260502053004 | 57 | 318 | 2.6 | 4.3 | 0.00 | 0.00 | 0.00 | 66 | 1015.0 |
| 20260502052004 | 57 | 342 | 2.6 | 7.8 | 0.00 | 0.00 | 0.00 | 65 | 1014.9 |
| 20260502051003 | 57 | 355 | 1.7 | 2.6 | 0.00 | 0.00 | 0.00 | 65 | 1014.9 |
| 20260502050004 | 58 | 348 | 0.9 | 4.3 | 0.00 | 0.00 | 0.00 | 66 | 1015.0 |
| 20260502045003 | 58 | 348 | 2.6 | 6.1 | 0.00 | 0.00 | 0.00 | 63 | 1015.0 |
| 20260502044003 | 58 | 11 | 1.7 | 6.1 | 0.00 | 0.00 | 0.00 | 63 | 1015.3 |